Regional Weather Roundup
Issued by NWS Sioux Falls, SD

Home | Current Version | Previous Version | Graphics & Text | Print | Product List | Glossary Off
Versions: 1 2 3 4 5 6 7 8 9 10 11 12 13 14 15 16 17 18 19 20 21 22 23 24 25 26 27 28 29 30 31 32 33 34 35 36 37 38 39 40 41 42 43 44 45 46 47 48 49 50

000
ASUS43 KFSD 301402
RWRFSD

WEATHER ROUNDUP FOR SE SOUTH DAKOTA/SW MINNESOTA/NW IOWA
NATIONAL WEATHER SERVICE SIOUX FALLS SD
900 AM CDT TUE SEP 30 2014

NOTE: "FAIR" INDICATES FEW OR NO CLOUDS BELOW 12,000 FEET WITH NO
SIGNIFICANT WEATHER AND OR OBSTRUCTIONS TO VISIBILITY.


SDZ038>040-050-052>070-301500-
SOUTHEAST SOUTH DAKOTA

CITY           SKY/WX    TMP DP  RH WIND       PRES   REMARKS
CHAMBERLAIN    CLOUDY    59  58  94 SE21G30   29.64F FOG
HURON          HVY RAIN  55  52  89 SE16G24   29.72F FOG
MADISON        CLOUDY    50  50 100 SE14G24   29.82F
MITCHELL       LGT RAIN  56  54  93 SE21G28   29.75F FOG
SIOUX FALLS    CLOUDY    54  51  90 SE18      29.84F
WINNER         FAIR      63  52  67 S22G38    29.62R
YANKTON        CLOUDY    59  55  88 E7        29.80F
$$

MNZ071-072-080-081-089-090-097-098-301500-
SOUTHWEST MINNESOTA

CITY           SKY/WX    TMP DP  RH WIND       PRES   REMARKS
FAIRMONT       CLOUDY    48  45  87 E9        29.98F
JACKSON        FOG       50  46  87 E13       29.96F VSB 3/4
LUVERNE        CLOUDY    54  50  87 SE12      29.90S
MARSHALL       CLOUDY    46  41  81 SE20      29.92F
MONTEVIDEO     CLOUDY    45  43  93 SE16G22   29.96F
PIPESTONE      CLOUDY    52  48  87 SE15G21   29.88F
REDWOOD FALLS  CLOUDY    45  41  86 SE15G22   29.99S
TRACY          CLOUDY    47  45  93 E12       29.95S
WINDOM         FOG       46  46 100 E12       29.96S VSB 1
WORTHINGTON    CLOUDY    48  46  93 E10       29.93F
$$

IAZ001>003-012>014-020>022-031-032-NEZ013-014-SDZ071-301500-
NORTHWEST IOWA

CITY           SKY/WX    TMP DP  RH WIND       PRES   REMARKS
CHEROKEE       CLOUDY    54  54 100 SE9       29.91F FOG
DENISON        CLOUDY    59  59 100 VRB6      29.89S
ESTHERVILLE    FOG       50  50 100 E15       29.96F VSB 1/4
LE MARS        CLOUDY    57  55  94 SE8G15    29.88F
ORANGE CITY    CLOUDY    57  54  88 SE12G17   29.88F
SHELDON        CLOUDY    54  52  94 SE13      29.90R FOG
SIOUX CITY     CLOUDY    60  57  89 SE10      29.86F
SPENCER        CLOUDY    52  51  97 E15       29.94F FOG
STORM LAKE     FOG       54  54 100 SE12G22   29.93F VSB<1/4
$$

ABBREVIATIONS USED IN REMARKS
   TC - TEMPERATURE IN CELSIUS
  WCI - WIND CHILL INDEX
   HX - HEAT INDEX
  VSB - VISIBILITY




USA.gov is the U.S. government's official web portal to all federal, state and local government web resources and services.